Location: Newark
(33.6439°N, 114.9881°W)
Time: 14:01:35
(UTC+00:00)

OTV 5 (USA 277) - Visible Passes

Search period start: 16 October 2019 00:00
Search period end: 26 October 2019 00:00
Orbit: 310 x 324 km, 54.5° (Epoch: 08 October)

Date Brightness Start Highest point End Pass type
(mag) Time Alt. Az. Time Alt. Az. Time Alt. Az.
19 Oct ? 12:25:28 10° N 12:26:53 13° NE 12:28:17 10° ENE visible
20 Oct ? 12:39:44 15° NNW 12:41:37 34° NE 12:44:08 10° ESE visible
21 Oct ? 12:54:32 21° NW 12:56:10 59° SW 12:58:50 10° SSE visible
22 Oct ? 13:09:28 13° W 13:10:34 16° SW 13:12:22 10° SSW visible
23 Oct ? 11:53:35 11° SE 11:53:35 11° SE 11:53:43 10° SE visible
